Hourly Data Report for May 13, 2016

All times are specified in Local Standard Time (LST). Add 1 hour to adjust for Daylight Saving Time where and when it is observed.

LA RONGE RCS
SASKATCHEWAN

55°08'47.020" N
105°16'13.030" W
378.60 m
4064149
71586
XOX

Download Data

Hourly Data (May 2016)
Hourly Data Report for May 13, 2016
TIME Temp Definition
°C
Dew Point Definition
°C
Rel Hum Definition
%
Wind Dir Definition
10's deg

Wind Spd Definition
km/h
Visibility Definition
km
Stn Press Definition
kPa
Hmdx Definition


Wind Chill Definition


Weather Definition


00:00 1.1 -5.1 63 31 7   98.19     LegendNANA
01:00 -0.7 -4.5 76 29 3   98.19   -2 LegendNANA
02:00 -1.9 -4.0 85 32 2   98.21   -3 LegendNANA
03:00 -2.4 -4.3 86 33 3   98.23   -4 LegendNANA
04:00 -3.0 -4.9 87 31 2   98.24   -4 LegendNANA
05:00 -3.9 -5.5 89   0   98.26     LegendNANA
06:00 -0.3 -3.3 80 28 8   98.27   -3 LegendNANA
07:00 3.4 -2.2 67 28 8   98.28     LegendNANA
08:00 5.9 -2.9 53 30 11   98.27     LegendNANA
09:00 6.6 -3.5 49 30 13   98.24     LegendNANA
10:00 8.6 -3.4 42 32 11   98.23     LegendNANA
11:00 9.4 -3.7 40 31 14   98.22     LegendNANA
12:00 11.6 -3.3 35 29 15   98.14     LegendNANA
13:00 11.7 -3.2 35 32 18   98.13     LegendNANA
14:00 12.2 -3.1 34 35 22   98.09     LegendNANA
15:00 10.9 -0.9 44 1 17   98.11     LegendNANA
16:00 12.6 -3.6 32 33 17   98.07     LegendNANA
17:00 12.8 -2.8 34 32 15   98.07     LegendNANA
18:00 12.1 -2.8 35 35 17   98.06     LegendNANA
19:00 12.0 -2.9 35 34 18   98.03     LegendNANA
20:00 11.2 -2.2 39 33 14   98.01     LegendNANA
21:00 8.9 -1.9 47 33 6   97.99     LegendNANA
22:00 6.2 -1.0 60 32 7   98.00     LegendNANA
23:00 5.1 -1.3 63 1 3   98.01     LegendNANA

Notes on Data Quality.

Legend

  • E = Estimated
  • M = Missing
  • NA = Not Available
Date modified: